Hourly Data Report for November 12, 2018

PILGER
SASKATCHEWAN
Current Station Operator: ECCC - MSC

52°25'00.000" N
105°09'00.000" W
552.00 m
4056121
71655
PUN

Download Data

Hourly Data (November 2018)
Hourly Data Report for November 12, 2018
TIME
LST
Temp Definition
°C
Dew Point Definition
°C
Rel Hum Definition
%
Precip. Amount Definition
mm

Wind Dir Definition
10's deg

Wind Spd Definition
km/h
Visibility Definition
km
Stn Press Definition
kPa
Hmdx Definition


Wind Chill Definition


Weather Definition


00:00 -18.2 -20.6 82 0.2 28 4   96.79   -21 LegendNANA
01:00 -19.4 -21.6 83 0.0 27 4   96.84   -23 LegendNANA
02:00 -20.0 -22.2 83 0.0 26 4   96.81   -23 LegendNANA
03:00 -18.9 -20.8 85 0.0 25 5   96.77   -23 LegendNANA
04:00 -14.9 -16.8 85 0.0 26 6   96.71   -19 LegendNANA
05:00 -14.0 -16.8 79 0.0 27 8   96.68   -19 LegendNANA
06:00 -13.8 -16.4 81 0.0 25 5   96.62   -17 LegendNANA
07:00 -13.6 -16.0 82 0.0 23 3   96.59   -16 LegendNANA
08:00 -13.3 -15.6 83 0.0 23 3   96.52   -15 LegendNANA
09:00 -12.9 -15.4 82 0.0 21 2   96.47   -14 LegendNANA
10:00 -12.7 -15.3 81 0.0 20 5   96.44   -16 LegendNANA
11:00 -12.2 -15.2 78 0.0 20 6   96.43   -16 LegendNANA
12:00 -11.5 -15.5 72 0.0 21 7   96.41   -16 LegendNANA
13:00 -11.5 -15.6 72 0.0 21 7   96.35   -16 LegendNANA
14:00 -11.4 -15.7 71 0.0 20 7   96.28   -16 LegendNANA
15:00 -11.4 -16.0 69 0.0 20 9   96.22   -17 LegendNANA
16:00 -12.5 -16.0 75 0.0 20 8   96.18   -17 LegendNANA
17:00 -12.0 -15.0 78 0.0 20 8   96.13   -17 LegendNANA
18:00 -12.0 -14.6 81 0.0 20 7   96.08   -16 LegendNANA
19:00 -11.8 -14.1 83 0.0 18 7   96.05   -16 LegendNANA
20:00 -12.1 -14.3 84 0.0 18 7   96.05   -16 LegendNANA
21:00 -12.4 -14.6 84 0.0 20 8   95.95   -17 LegendNANA
22:00 -12.8 -14.8 85 0.0 19 7   95.88   -17 LegendNANA
23:00 -12.8 -14.6 86 0.0 18 9   95.84   -18 LegendNANA

Notes on Data Quality.

Legend

  • E = Estimated
  • M = Missing
  • NA = Not Available*
  • [empty] = Indicates an unobserved value
Date modified: